Presure
240 190 226 212 167 126 201 112 128 232 164 160 208 201 206 203 207 198 216 206 209 230 232 232 242 238 243 240 228 218 206 195 185 190 170 169 169 163 204 196 191 189 183
151 139 222 243 255 206 133 129 155 213 190 201 206 219 148 161 245 179 202 232 188 199 201 228 223 217 217 224 222 208 200 195 195 194 190 183 192 200 190 182 188 186 183
216 212 187 146 184 201 173 196 146 233 230 232 219 134 153 154 181 176 165 156 160 164 162 163 170 209 179 170 186 227 231 219 227 235 242 219 233 213 214 221 220 217 207
126 152 135 185 160 180 171 159 193 135 168 158 162 150 160 140 152 177 150 161 153 190 157 167 167 178 169 155 172 159 162 162 172 215 182 252 239 229 228 230 220 219 221
192 168 190 159 162 169 147 164 124 142 191 166 165 159 134 131 162 169 200 157 206 157 161 161 164 158 157 160 154 161 150 208 178 169 201 173 242 241 229 226 223 221 217
145 191 156 202 161 192 181 168 212 165 145 209 164 167 167 187 126 147 149 195 168 143 206 154 179 188 150 167 161 204 207 164 170 176 156 193 199 194 239 234 236 228 223
146 156 175 173 183 127 140 193 192 184 181 162 185 162 183 155 203 147 166 158 153 159 145 151 176 160 155 166 152 171 193 156 178 160 168 214 177 201 203 220 231 247 212
146 168 163 158 113 196 131 140 169 149 162 135 142 180 189 187 188 168 177 170 180 148 171 200 163 195 195 160 186 171 164 182 193 173 186 195 187 231 181 231 222 227 232
112 114 110 112 201 143 108 220 134 145 202 150 173 204 183 190 185 185 200 189 192 190 186 198 170 189 165 196 164 179 165 200 180 163 173 194 177 228 187 203 204 286 284
155 195 102 143 217 191 152 207 203 213 141 126 150 186 207 193 204 179 190 173 197 173 219 185 158 193 186 171 152 170 200 166 205 185 165 196 185 208 213 194 186 223 279
153 149 179 212 173 210 180 192 213 194 193 186 209 185 179 176 179 179 180 190 185 193 175 180 211 201 185 176 196 202 160 171 168 163 194 192 188 197 179 171 242 209 274
156 156 98 209 178 221 194 247 201 209 198 186 186 177 176 194 168 177 167 174 169 170 185 164 171 164 197 189 167 208 163 181 189 209 175 186 202 188 190 206 187 218 233
201 184 144 211 202 210 170 200 175 203 189 172 192 210 198 169 201 203 169 188 168 191 170 170 175 177 201 193 166 166 170 173 178 204 175 212 180 176 214 186 215 196 226
163 155 293 151 200 181 197 254 217 202 184 184 190 171 192 178 203 159 161 164 171 197 196 195 217 170 181 176 173 175 191 179 184 186 200 186 184 172 211 228 203 253 231
239 153 240 147 259 242 204 194 179 198 201 196 171 204 203 181 199 184 154 179 194 155 160 173 184 191 164 170 191 181 169 198 204 197 201 187 207 206 199 219 202 223 223
151 154 212 221 268 257 201 204 199 185 199 179 202 183 173 184 182 194 178 173 196 163 174 177 175 188 179 174 179 182 204 209 205 226 216 207 180 206 215 215 222 215 228
205 188 198 217 220 131 248 257 197 193 203 181 193 213 196 168 188 168 176 194 179 179 192 192 173 179 190 185 183 170 207 173 220 177 194 177 229 247 238 226 224 231 242
247 175 253 237 202 197 259 241 205 236 223 192 191 198 194 172 175 175 175 182 181 189 181 195 200 196 186 211 222 220 191 217 225 189 234 202 231 228 225 224 233 234 236
106 242 248 235 218 228 244 240 236 222 204 200 213 196 189 175 173 173 204 178 202 190 183 214 198 206 232 193 202 182 198 225 222 211 234 252 237 244 239 239 233 221 222
250 257 242 262 242 233 263 240 230 235 231 219 215 201 200 191 191 204 248 203 195 188 218 208 210 231 218 239 225 194 224 240 248 248 242 235 234 228 225 218 232 238 243
254 243 248 228 246 205 199 248 248 262 258 257 253 247 235 231 222 216 221 215 211 205 202 205 240 247 216 248 249 249 250 247 241 239 236 253 252 251 252 254 252 250 247
256 257 246 242 229 236 215 214 189 204 202 200 203 200 201 201 222 206 227 241 226 246 258 261 240 253 247 241 239 238 250 269 265 259 254 264 278 287 289 285 285 282 273
249 252 253 248 246 232 235 229 236 213 215 217 243 227 234 195 257 266 262 265 264 251 244 239 241 244 253 262 262 261 301 311 331 323 328 332 325 337 333 326 311 303 293
245 251 249 260 249 254 255 258 237 245 248 253 258 255 254 253 248 243 239 233 229 249 252 257 264 264 262 319 321 312 309 308 317 338 346 341 337 339 336 325 312 298 298
269 266 262 260 256 253 252 252 250 250 247 241 231 227 226 234 238 241 247 257 259 258 268 289 329 319 309 305 322 313 321 331 327 325 361 376 367 353 350 357 363 341 325
236 234 231 228 226 225 224 224 227 230 233 236 239 240 246 257 260 257 258 296 337 332 320 306 297 307 322 314 302 319 319 312 306 302 297 293 290 338 361 357 354 365 358
Wind_Speed
22 10 18 19 4 18 8 16 10 35 14 12 36 34 36 36 35 26 33 31 34 38 41 41 40 39 38 35 36 35 38 44 51 50 53 55 55 56 54 58 61 61 63
16 15 6 21 28 14 11 19 20 26 18 20 23 30 14 9 30 7 8 26 17 18 19 28 28 27 27 29 31 35 39 41 46 53 57 60 57 52 57 63 64 68 71
15 15 20 18 5 9 10 15 15 22 23 26 28 24 13 12 8 7 7 16 15 18 16 25 28 23 26 31 23 30 31 32 38 43 49 51 55 58 61 61 59 60 63
20 11 26 5 15 1 20 24 7 32 18 13 15 19 13 22 20 10 24 9 12 28 15 14 17 27 18 24 40 34 45 49 46 38 48 46 49 51 54 56 60 64 63
20 7 16 34 38 24 38 31 28 31 14 25 21 21 22 21 16 19 31 16 33 14 17 12 21 22 23 22 29 47 33 34 51 52 52 52 38 44 46 50 55 60 64
30 30 29 22 42 24 36 42 25 38 38 20 25 23 17 29 25 26 31 42 17 26 35 14 29 44 29 32 30 48 45 48 63 46 41 65 75 55 43 48 54 58 60
32 34 43 47 22 13 17 46 48 33 25 22 29 25 29 30 30 32 34 29 28 38 38 29 27 33 28 24 35 59 63 33 73 38 43 71 60 67 65 53 51 55 61
34 17 26 39 16 41 15 17 34 30 16 29 38 35 37 40 43 36 38 44 47 38 30 49 28 30 60 39 60 42 35 72 71 60 60 90 69 55 60 51 59 54 58
24 11 13 20 48 34 27 43 36 20 51 35 27 49 43 49 48 45 57 60 55 49 59 39 43 62 43 68 37 59 46 67 65 46 68 69 78 54 65 76 77 52 45
37 39 22 31 56 52 36 55 55 54 38 39 19 52 54 56 61 34 51 25 69 33 50 64 44 67 72 46 42 49 84 55 61 88 43 90 94 86 82 65 64 70 45
40 39 60 66 42 53 53 53 55 53 61 51 71 46 37 33 33 42 45 60 54 71 42 52 72 76 49 59 96 89 46 64 53 46 88 72 80 96 72 55 62 77 44
42 43 22 67 55 59 60 53 54 58 59 62 63 52 44 70 36 49 28 44 39 42 73 41 55 43 91 93 61 88 49 94 105 90 89 89 95 65 80 87 63 68 59
63 54 44 75 74 68 56 62 59 60 67 59 72 77 72 38 83 84 44 83 41 85 59 64 81 61 84 89 56 56 75 83 89 95 84 90 89 67 89 80 78 75 74
52 49 44 51 70 57 70 56 59 73 74 79 72 55 68 63 86 38 37 40 58 91 102 101 90 70 98 83 85 89 114 95 106 117 109 99 114 72 75 77 101 53 61
51 55 55 52 46 58 76 78 69 78 71 81 59 76 78 64 87 84 67 92 103 46 56 84 117 120 51 75 125 113 67 126 98 123 73 117 104 102 109 87 74 76 74
61 61 51 54 39 40 59 69 69 74 70 80 73 93 70 83 77 91 85 85 105 76 91 102 90 122 109 94 114 121 120 106 105 82 89 111 104 110 95 89 81 84 72
53 59 51 50 42 45 46 44 75 77 78 85 85 87 96 73 101 76 100 106 105 110 120 122 92 106 133 125 117 74 104 86 102 98 131 97 90 77 77 83 81 76 71
54 58 44 49 59 62 42 50 72 62 70 87 93 91 95 88 98 101 106 112 116 110 116 130 117 118 81 106 94 99 130 113 97 128 93 102 92 87 88 89 80 77 75
28 43 39 44 58 55 53 54 54 66 79 84 81 91 102 91 94 95 93 108 92 92 92 108 107 117 96 125 89 108 95 106 110 103 100 85 92 84 85 83 83 84 83
44 44 43 43 45 48 44 59 60 62 66 75 78 94 100 108 112 99 79 110 114 108 96 112 106 102 103 96 103 118 99 101 95 93 94 97 96 94 96 97 93 89 84
48 49 45 43 46 55 64 46 49 48 57 57 57 63 68 72 82 91 93 95 107 119 122 124 97 94 115 96 95 95 94 96 98 99 100 95 94 93 92 90 88 89 85
47 50 53 55 53 54 66 60 73 64 68 72 73 79 83 88 91 99 96 91 96 97 93 92 103 93 93 96 98 100 100 98 97 97 98 97 94 91 90 90 89 88 89
51 50 49 54 56 56 58 59 62 73 74 78 75 81 84 98 86 85 86 87 87 88 90 93 95 98 100 101 102 102 88 85 77 78 78 79 81 85 87 89 90 90 88
47 47 50 53 56 60 61 62 68 72 74 73 73 76 80 82 83 85 87 89 92 98 100 102 102 102 103 79 75 76 76 75 73 68 67 68 69 71 72 75 77 78 77
39 41 44 47 51 55 58 61 65 69 72 74 77 80 83 87 90 93 96 98 98 99 97 92 70 71 73 74 68 69 66 62 60 58 53 53 55 57 59 62 63 68 71
51 54 57 59 62 65 68 71 74 76 80 83 87 89 92 93 93 94 96 84 66 64 65 68 71 69 63 62 64 62 59 58 58 57 55 54 54 50 49 51 54 55 57
Wind_Direction
245 252 237 259 288 348 236 5 346 246 283 291 256 266 267 268 271 277 274 287 284 282 282 284 288 288 290 292 289 290 291 292 294 289 293 291 288 287 279 276 276 275 276
335 330 233 250 252 223 326 346 314 267 257 262 268 273 302 318 272 298 321 290 317 308 313 300 300 304 303 299 296 294 295 294 295 296 298 299 294 287 280 281 279 277 278
130 169 159 311 148 108 189 37 308 271 272 270 273 327 287 293 82 21 338 316 3 30 20 11 11 323 19 11 332 314 317 331 318 305 294 301 296 297 295 294 291 288 286
339 316 334 227 271 45 235 285 152 313 197 241 238 273 264 313 293 315 303 306 323 332 340 351 358 335 345 311 359 337 354 349 341 320 323 288 287 289 288 289 289 289 289
202 273 236 321 315 276 315 281 318 307 280 233 235 239 309 321 257 280 275 292 319 308 306 327 336 315 323 317 314 336 314 337 346 352 352 328 300 291 297 296 295 295 294
339 239 322 226 323 237 249 274 260 256 295 252 236 261 224 275 316 304 286 295 301 317 318 279 300 326 297 323 306 339 335 333 339 335 312 345 348 347 295 296 296 292 296
337 330 306 308 284 287 349 256 264 251 260 255 255 281 285 274 272 289 278 271 282 292 311 276 298 289 289 300 296 329 330 310 336 310 326 339 340 340 340 316 299 297 307
334 277 316 329 292 281 320 328 274 303 243 295 293 277 285 297 295 268 289 296 304 286 304 303 283 300 321 303 322 328 313 329 330 335 326 339 334 324 324 310 324 314 309
318 290 307 306 264 314 305 254 295 279 269 278 309 278 307 295 306 303 292 298 304 295 320 305 304 319 296 317 302 330 324 323 323 311 331 326 333 315 326 337 333 310 300
317 260 314 310 268 303 282 256 266 265 287 284 270 301 281 300 287 316 304 294 297 297 295 314 279 311 316 308 288 310 322 315 319 332 307 330 334 333 329 329 319 321 302
310 301 286 276 311 285 302 297 260 278 277 273 280 287 317 317 287 312 318 307 293 303 314 302 307 309 302 298 311 315 294 310 311 306 325 321 328 326 323 313 317 325 304
305 305 290 271 287 283 290 265 283 268 278 288 295 286 286 289 295 309 286 312 297 303 309 278 309 281 308 310 302 317 301 321 321 317 324 322 320 313 323 321 319 316 315
277 293 306 276 282 277 299 287 299 267 282 300 278 267 271 293 282 280 300 301 282 295 308 307 313 296 304 306 297 303 313 317 316 315 320 312 321 317 314 316 314 318 318
303 303 282 308 283 291 280 273 267 265 278 284 284 303 282 298 275 288 290 292 286 287 290 292 299 303 308 308 311 312 310 313 313 314 314 319 319 310 301 308 315 308 309
282 305 285 308 268 259 277 281 290 276 276 280 302 263 267 285 272 297 286 301 283 293 300 307 299 297 295 308 301 305 307 307 306 310 300 312 308 308 312 307 305 308 306
300 303 287 277 295 263 271 270 273 283 273 289 270 289 301 287 293 275 295 303 285 296 299 300 301 295 300 303 303 302 301 300 302 294 297 304 312 308 302 304 306 303 302
296 294 290 272 279 302 279 251 267 271 268 281 274 256 271 300 283 302 296 283 294 293 288 288 303 298 297 296 296 305 297 308 296 308 305 307 296 296 297 298 299 299 298
298 297 290 283 273 276 264 268 256 260 262 267 270 270 270 290 289 290 291 289 288 289 291 285 288 290 299 289 287 288 298 294 290 300 292 300 295 295 295 295 294 293 292
285 286 284 277 278 279 274 270 266 262 261 263 265 267 265 280 284 285 285 284 285 288 290 283 289 288 285 292 294 299 295 291 293 296 292 291 292 291 291 291 292 292 291
290 291 284 290 273 275 273 266 266 266 265 264 265 263 264 267 269 274 285 278 278 287 280 281 286 285 288 286 287 295 292 290 291 292 291 291 291 291 291 292 290 288 286
289 295 288 276 287 267 272 278 276 283 275 276 274 271 268 269 267 269 273 272 273 275 279 281 288 287 285 289 289 289 289 289 288 288 287 287 287 286 285 284 283 283 281
284 284 286 287 279 284 272 262 279 263 266 269 267 268 269 269 274 268 278 282 281 287 285 286 286 288 288 288 288 287 288 288 288 287 286 285 281 277 274 273 272 270 272
292 290 285 286 287 289 289 285 283 275 281 282 283 280 280 279 286 284 285 285 286 287 287 287 288 289 291 292 292 292 287 285 281 280 278 275 273 270 269 267 265 265 266
289 286 286 282 287 285 285 282 288 287 287 287 287 286 287 288 289 290 290 288 287 292 293 293 293 293 293 292 291 290 289 288 286 283 281 278 275 272 269 267 267 266 264
294 293 290 289 289 289 288 288 288 290 291 291 289 288 288 290 290 291 291 291 291 291 292 292 294 294 294 293 294 293 293 291 289 289 288 284 281 278 275 272 268 265 263
300 299 297 296 295 294 293 292 292 292 291 291 290 290 290 290 290 290 291 293 296 296 297 297 296 297 298 297 298 299 296 294 293 291 289 288 287 283 277 274 269 266 263